Temperature
15 15 15 15 15 15 15 15 15 15 16 16 16 16 15 15 15 15 15 15 15 15 15 14 14 15 15 15 15 15 15 15 15 15 15 15 15 15
15 15 15 15 15 15 15 15 15 15 15 15 15 15 15 15 15 15 15 15 14 14 14 14 14 14 14 14 14 14 14 14 14 14 14 14 14 14
16 16 16 15 15 15 15 15 15 15 15 15 15 15 15 15 15 15 15 14 14 14 14 14 14 14 14 14 14 14 14 14 14 14 14 14 14 14
16 16 16 16 16 15 15 15 15 15 15 15 16 15 15 15 15 15 15 15 14 14 14 14 14 14 14 14 14 14 14 14 14 14 14 14 14 14
16 16 16 16 16 16 15 15 15 15 15 15 15 15 15 15 15 15 15 15 15 15 14 14 14 14 14 14 14 14 14 14 13 13 14 14 14 14
16 16 16 16 16 15 15 15 15 15 15 15 15 15 15 15 15 15 15 15 15 15 15 14 14 14 14 14 14 14 14 14 13 13 13 13 13 13
16 16 16 15 15 15 15 15 15 14 14 14 14 15 15 15 15 15 14 15 15 15 14 14 14 14 14 14 14 14 14 14 13 13 13 13 13 13
16 15 15 15 15 14 14 14 14 14 14 14 14 14 14 14 14 14 14 14 14 15 14 14 14 14 14 14 14 14 14 14 13 13 13 13 13 13
15 15 14 14 14 14 14 14 13 13 13 13 13 13 13 13 13 13 13 13 13 14 13 13 14 14 14 14 14 14 14 14 13 13 13 13 13 13
14 13 13 13 13 13 13 13 13 13 13 12 12 12 12 12 12 12 12 12 12 13 13 12 13 13 14 14 14 14 14 14 13 13 13 13 13 12
12 12 12 12 12 12 12 12 12 12 12 12 12 12 12 12 12 12 12 12 12 12 12 12 13 13 13 13 14 14 14 14 13 13 13 13 13 12
12 11 11 11 11 11 11 11 11 11 11 11 11 11 11 11 11 11 11 11 11 11 12 12 12 12 12 13 13 13 13 13 13 13 13 13 13 12
11 10 10 10 10 10 10 9 9 9 9 10 10 10 11 11 11 11 11 10 10 10 11 11 11 11 11 11 12 12 12 12 13 13 13 13 13 12
9 9 9 9 9 9 9 9 8 8 8 8 8 9 9 9 10 10 10 10 10 10 10 10 10 10 10 10 10 11 12 12 12 12 12 12 12 12
8 8 8 8 8 7 8 7 7 7 7 7 7 7 7 8 8 8 9 9 9 9 9 9 9 9 10 9 10 10 11 11 11 11 12 12 12 12
7 7 7 7 6 6 6 6 6 6 6 6 6 6 7 7 7 7 8 8 8 9 9 9 9 9 9 9 9 10 10 10 11 11 11 11 11 12
6 6 6 6 6 5 5 5 5 5 5 5 5 5 6 6 6 7 7 7 7 8 8 9 9 9 9 9 9 9 10 10 10 11 11 11 11 11
5 5 5 4 4 4 4 4 4 4 4 4 4 4 4 5 5 6 6 6 6 7 7 8 8 8 9 9 9 9 9 10 10 10 10 10 10 11
4 4 4 3 3 3 3 3 3 3 3 3 3 3 4 4 4 4 4 5 5 6 6 7 7 7 7 8 9 9 9 9 10 10 10 10 10 11
3 3 2 2 2 2 2 2 2 2 2 2 3 3 3 3 3 4 4 4 4 5 5 6 6 7 7 7 8 9 9 9 9 9 10 10 10 10
2 2 2 1 1 1 1 1 2 2 2 2 2 2 2 3 3 3 3 4 4 4 5 5 6 7 7 7 7 8 9 9 9 9 9 9 9 9
1 1 1 1 1 1 1 1 1 1 1 1 2 2 2 2 2 3 3 3 4 4 4 5 6 6 6 7 7 7 8 8 9 9 9 9 9 9
0 0 0 0 0 0 0 0 0 0 1 1 1 1 2 2 2 2 3 3 3 4 4 5 5 6 6 6 7 7 7 8 8 8 9 9 9 9
Wind_Speed
2 1 1 1 0 1 2 3 4 1 3 4 3 3 5 9 12 14 14 15 15 14 14 14 13 13 13 13 14 14 14 15 15 15 16 16 16 17
3 3 2 2 1 0 1 2 3 4 4 3 4 3 3 6 11 15 16 17 18 18 18 18 18 18 18 17 17 17 17 16 16 16 17 17 17 17
4 4 5 4 3 2 1 1 2 3 4 5 3 3 3 4 5 12 15 16 17 20 21 21 22 22 22 22 21 21 20 19 19 19 18 18 18 17
7 6 7 5 5 4 4 4 4 4 5 6 4 3 5 5 5 5 10 14 16 19 22 23 24 25 25 25 25 24 24 23 22 21 20 20 19 19
8 8 8 7 7 6 6 6 5 5 5 5 6 4 5 5 5 6 6 7 13 17 20 22 25 26 26 26 27 27 26 25 24 24 23 22 21 20
8 9 9 9 9 9 8 8 7 7 6 6 7 6 6 6 4 6 7 6 7 11 15 18 20 23 25 26 27 27 27 27 27 26 25 24 23 23
8 8 9 10 12 10 8 7 7 7 7 7 9 7 7 6 6 6 8 8 7 7 7 9 10 11 15 21 24 26 27 28 28 28 27 27 26 25
6 6 7 7 8 10 11 10 9 9 9 8 9 10 11 9 8 7 7 7 8 5 6 9 6 9 9 15 21 24 26 28 29 29 28 28 28 27
3 4 4 4 4 4 6 8 9 12 12 10 11 12 11 9 8 9 9 10 11 7 5 8 7 10 9 17 22 25 26 27 28 28 28 28 28 28
2 2 2 3 5 5 5 5 6 7 9 9 10 12 11 9 9 11 12 11 9 7 6 9 8 9 9 12 21 24 26 27 28 28 28 28 28 28
5 5 4 4 7 9 6 7 8 9 10 12 13 14 17 18 14 9 8 9 12 10 7 8 9 9 9 10 15 23 26 28 28 28 28 28 28 26
4 5 6 6 8 9 6 6 9 10 10 12 11 12 11 13 16 12 11 12 11 9 7 7 9 7 7 8 10 12 16 22 27 28 28 28 26 16
3 3 4 9 11 12 9 6 10 11 9 9 10 10 9 9 9 8 10 11 13 12 7 6 7 8 9 7 6 8 9 9 11 15 22 26 25 17
2 3 5 11 13 14 10 11 14 12 7 7 7 8 8 9 9 10 9 11 14 15 12 10 9 10 11 12 8 6 8 8 9 10 9 16 19 23
3 7 10 12 12 10 11 13 11 7 6 6 7 8 8 9 9 9 9 10 11 13 16 13 13 11 11 13 12 9 8 7 8 10 9 10 9 8
4 7 10 10 8 8 9 8 6 6 6 6 7 7 7 7 8 8 9 9 9 11 10 12 12 14 14 14 13 12 10 8 7 10 10 10 8 8
4 3 4 5 6 6 6 6 6 6 7 6 7 8 8 8 9 8 8 9 10 11 11 8 9 10 13 13 13 13 12 11 11 10 9 11 11 11
3 3 4 5 5 6 7 7 6 7 7 8 8 8 9 9 10 9 9 9 11 12 11 10 8 8 7 9 14 13 12 12 11 11 10 11 13 10
3 3 4 5 6 6 6 7 7 7 8 8 9 9 10 10 10 10 10 10 11 11 11 9 8 9 12 14 9 13 13 11 10 10 11 11 13 12
3 4 5 6 6 7 7 7 8 8 8 8 9 10 10 10 11 11 11 12 12 12 12 10 9 10 12 13 10 8 14 12 10 11 10 9 10 11
5 6 6 6 7 7 7 8 8 9 9 9 10 10 10 11 12 12 12 15 13 12 13 12 11 13 10 8 8 8 8 14 14 10 8 7 7 7
6 6 7 7 7 8 8 8 8 9 10 9 10 10 10 11 12 14 13 13 12 12 14 13 11 9 7 9 11 11 10 8 11 15 15 12 8 8
7 7 7 8 8 8 8 9 10 9 9 10 10 11 11 12 12 12 13 13 13 13 12 12 10 8 8 9 10 10 10 9 6 6 8 14 18 18
Wind_Direction
200 197 198 242 186 168 163 156 150 184 283 285 291 283 244 226 220 213 217 222 226 232 239 245 248 251 251 251 251 252 253 255 256 257 256 256 255 255
211 215 232 236 251 222 161 169 164 170 225 265 262 274 258 241 235 223 227 230 232 236 241 246 250 253 254 253 252 252 252 253 254 254 254 254 255 255
229 221 235 233 240 247 221 188 188 175 224 270 263 273 258 251 246 237 242 241 241 242 244 248 251 254 255 254 253 253 253 253 254 254 253 253 254 254
231 229 237 236 236 239 235 236 230 210 213 259 275 271 257 249 242 240 243 244 242 246 247 249 252 254 255 255 253 253 253 253 254 254 254 253 253 253
225 226 232 229 237 236 233 236 239 238 219 239 266 261 264 260 261 261 253 249 250 251 250 251 252 253 254 254 253 251 251 252 253 253 253 253 253 253
228 228 230 226 231 232 235 234 234 241 239 245 261 264 261 260 249 259 271 258 256 255 254 252 252 253 254 253 252 251 250 250 251 251 251 252 252 252
238 237 238 236 234 234 239 235 232 239 243 248 259 266 264 259 251 246 259 266 263 246 253 255 252 253 254 254 252 251 250 249 249 250 249 249 249 249
245 254 257 255 256 252 252 249 237 239 246 248 255 257 262 255 254 250 254 262 271 243 227 255 238 248 247 247 249 248 248 248 248 248 248 247 247 247
264 274 280 294 303 293 283 278 268 259 251 251 257 259 263 257 250 254 249 247 256 252 226 259 247 249 248 249 247 247 248 248 248 247 246 246 245 244
342 332 334 357 3 351 330 320 304 292 278 266 261 267 269 264 250 253 257 259 258 251 223 255 255 252 252 247 249 247 247 246 246 247 246 245 243 243
16 24 26 17 9 11 357 331 315 305 301 294 286 279 278 275 269 268 262 261 268 262 228 241 256 257 254 252 250 248 247 247 246 245 244 243 242 240
19 19 25 19 3 1 348 320 305 301 306 308 302 295 283 276 270 255 254 258 265 266 235 233 251 249 263 252 249 248 248 249 247 245 243 242 239 232
13 347 330 339 338 332 323 289 281 290 295 292 293 292 289 282 274 261 250 251 258 259 242 226 246 244 249 259 255 245 240 243 245 245 243 241 236 219
327 309 311 323 326 323 317 302 302 304 293 290 290 290 289 287 284 278 267 260 257 259 256 241 247 248 254 259 259 252 242 238 236 240 238 237 234 225
303 307 313 316 320 318 314 315 319 316 310 304 299 294 289 286 288 288 285 277 269 266 264 250 248 251 249 256 258 249 249 244 232 236 237 232 227 212
325 317 316 317 319 311 314 320 320 313 312 305 304 301 302 300 298 295 293 292 289 284 269 257 250 249 254 253 252 252 243 240 234 233 234 236 228 216
323 333 340 337 336 329 322 317 318 323 321 313 308 308 308 305 302 301 292 292 286 286 287 277 258 250 250 251 253 250 248 246 243 238 232 240 238 228
19 345 328 323 320 319 319 318 317 316 314 311 309 306 306 305 302 299 292 289 288 286 283 281 279 279 273 259 235 245 246 244 242 232 227 236 245 237
12 327 316 312 310 310 311 310 309 309 309 308 307 305 303 302 302 300 295 290 287 286 284 280 273 267 272 275 255 222 235 243 239 234 228 229 240 242
336 318 311 309 309 309 310 310 309 310 309 308 307 305 304 303 303 301 297 292 291 290 287 279 267 260 259 267 270 255 227 231 236 237 235 232 241 247
326 317 312 312 311 309 307 306 306 306 305 306 305 305 306 305 302 299 299 294 288 286 285 283 274 265 265 264 264 260 247 226 224 229 224 225 234 236
326 321 317 313 312 310 308 306 305 304 305 304 304 304 304 302 301 301 299 299 296 289 286 285 283 276 264 262 265 267 265 255 236 232 229 219 213 220
324 321 318 316 314 312 310 308 306 305 306 307 306 306 304 302 300 298 297 297 295 292 291 292 289 278 268 263 266 268 264 259 250 242 244 237 233 238
Height
1558 1559 1559 1560 1561 1561 1562 1562 1563 1561 1561 1561 1561 1561 1561 1561 1561 1561 1560 1560 1560 1559 1558 1558 1557 1557 1556 1556 1557 1557 1558 1558 1559 1560 1560 1561 1561 1562
1556 1557 1558 1559 1559 1560 1560 1560 1560 1560 1559 1559 1559 1559 1558 1558 1558 1558 1557 1557 1556 1555 1554 1553 1553 1552 1552 1552 1552 1552 1552 1552 1553 1554 1554 1555 1555 1556
1554 1555 1556 1557 1557 1558 1558 1558 1558 1558 1556 1556 1556 1556 1555 1555 1555 1554 1553 1553 1552 1551 1550 1549 1548 1548 1547 1547 1547 1547 1547 1547 1547 1547 1548 1548 1549 1549
1552 1553 1554 1554 1555 1555 1555 1555 1555 1555 1554 1552 1552 1552 1552 1551 1551 1550 1549 1548 1547 1546 1546 1545 1544 1543 1542 1542 1542 1542 1541 1541 1541 1541 1541 1541 1542 1542
1550 1550 1551 1551 1552 1552 1552 1552 1552 1552 1551 1549 1547 1547 1547 1547 1546 1545 1544 1543 1542 1541 1541 1540 1539 1538 1537 1537 1536 1536 1536 1535 1535 1535 1535 1535 1535 1535
1547 1547 1548 1548 1548 1548 1548 1548 1547 1547 1546 1544 1542 1542 1541 1541 1541 1539 1538 1537 1536 1536 1535 1534 1533 1532 1532 1531 1530 1530 1530 1529 1529 1529 1528 1528 1528 1528
1542 1543 1543 1543 1543 1543 1543 1542 1542 1541 1540 1539 1537 1536 1534 1534 1534 1533 1531 1530 1529 1529 1528 1527 1526 1525 1525 1524 1524 1524 1523 1523 1523 1522 1522 1522 1522 1522
1537 1537 1538 1538 1537 1537 1537 1536 1536 1535 1533 1532 1530 1529 1527 1527 1527 1526 1524 1523 1520 1521 1520 1518 1519 1517 1517 1517 1517 1516 1516 1516 1516 1515 1515 1515 1515 1515
1531 1531 1531 1531 1531 1530 1529 1529 1528 1528 1527 1525 1523 1521 1520 1519 1519 1517 1516 1514 1511 1512 1512 1508 1509 1507 1508 1508 1508 1508 1508 1507 1507 1507 1507 1507 1507 1507
1526 1525 1525 1524 1523 1522 1521 1520 1520 1519 1518 1517 1515 1513 1512 1511 1510 1509 1506 1504 1502 1502 1503 1498 1498 1497 1498 1498 1498 1498 1498 1498 1498 1498 1498 1499 1499 1499
1521 1520 1519 1518 1517 1515 1514 1512 1511 1510 1509 1507 1505 1504 1502 1502 1501 1499 1496 1494 1490 1490 1492 1489 1487 1487 1486 1486 1487 1488 1488 1488 1488 1488 1488 1489 1490 1491
1516 1515 1514 1513 1511 1509 1507 1505 1502 1501 1499 1497 1495 1494 1492 1491 1491 1489 1487 1484 1480 1477 1480 1480 1477 1477 1473 1473 1475 1476 1476 1477 1477 1478 1479 1480 1481 1481
1512 1510 1509 1507 1505 1504 1501 1499 1496 1492 1489 1487 1484 1482 1481 1480 1479 1478 1477 1474 1471 1467 1469 1470 1467 1466 1464 1461 1462 1464 1465 1465 1466 1467 1468 1469 1471 1472
1507 1505 1503 1501 1499 1497 1494 1491 1488 1485 1482 1479 1476 1473 1472 1470 1469 1467 1466 1464 1461 1459 1459 1459 1457 1456 1454 1451 1450 1451 1453 1454 1455 1456 1457 1458 1460 1461
1502 1500 1498 1496 1493 1491 1488 1485 1482 1478 1475 1472 1468 1466 1464 1462 1459 1457 1455 1453 1450 1449 1448 1448 1446 1445 1444 1441 1439 1440 1441 1441 1443 1444 1446 1447 1448 1450
1497 1495 1493 1491 1488 1485 1482 1479 1476 1473 1470 1466 1463 1460 1457 1454 1451 1449 1446 1443 1440 1436 1437 1437 1436 1434 1432 1430 1429 1428 1429 1429 1431 1433 1434 1435 1437 1438
1492 1489 1487 1485 1482 1479 1476 1473 1470 1467 1464 1460 1457 1453 1449 1446 1443 1441 1438 1434 1431 1427 1425 1425 1424 1423 1421 1419 1417 1416 1417 1417 1419 1421 1422 1422 1424 1426
1487 1484 1482 1479 1476 1473 1470 1467 1464 1461 1457 1454 1450 1446 1442 1439 1435 1432 1430 1426 1422 1418 1416 1414 1413 1411 1408 1406 1406 1405 1405 1405 1407 1408 1410 1410 1410 1413
1483 1480 1477 1474 1471 1468 1465 1461 1458 1455 1451 1448 1444 1440 1436 1432 1428 1424 1421 1417 1413 1410 1407 1405 1404 1402 1399 1394 1392 1396 1395 1395 1396 1396 1397 1398 1399 1401
1478 1475 1472 1469 1466 1463 1460 1456 1453 1449 1446 1442 1438 1434 1430 1425 1421 1417 1413 1409 1405 1401 1398 1396 1394 1392 1390 1387 1383 1383 1385 1385 1385 1385 1386 1387 1388 1391
1474 1471 1468 1465 1461 1458 1454 1451 1447 1444 1440 1436 1432 1428 1423 1419 1414 1410 1406 1401 1397 1393 1389 1386 1384 1384 1381 1378 1374 1371 1373 1375 1375 1375 1376 1377 1378 1380
1470 1466 1463 1460 1456 1452 1449 1445 1442 1438 1434 1430 1425 1421 1417 1413 1408 1403 1399 1395 1390 1386 1381 1378 1376 1374 1372 1369 1365 1363 1363 1364 1365 1366 1366 1368 1369 1370
1466 1462 1458 1455 1451 1447 1443 1439 1436 1432 1428 1423 1419 1415 1410 1406 1401 1397 1393 1388 1384 1379 1375 1371 1368 1366 1363 1361 1359 1357 1356 1355 1356 1356 1357 1359 1361 1363